Location: ActonStarParty
(42.4766°N, 71.4538°W)
Time: 10:26:47
(UTC-04:00)

ATLAS 5 CENTAUR R/B - Pass Details

Date: 19 April 2018
Orbit: 601 x 1059 km, 63.4° (Epoch: 17 June)

Event Time Altitude Azimuth Distance (km) Brightness Sun altitude
Rises 22:41:12 0° 330° (NNW) 3,329 6.5 -29.1°
Reaches altitude 10° 22:43:54 10° 342° (NNW) 2,473 5.5 -29.4°
Maximum altitude 22:48:50 28° 40° (NE) 1,647 3.8 -29.9°
Enters shadow 22:49:45 27° 55° (NE) 1,703 3.7 -30.0°
